Location: Pettit
(39.0209°N, 79.7181°W)
Time: 03:55:35
(UTC+00:00)

Hubble Space Telescope - Pass Details

Date: 25 April 2026
Orbit: 473 x 476 km, 28.5° (Epoch: 11 May)

Event Time Altitude Azimuth Distance (km) Brightness Sun altitude
Rises 01:47:48 0° 234° (SW) 2,507 4.4 -18.6°
Reaches altitude 10° 01:50:41 10° 211° (SSW) 1,630 3.2 -19.1°
Enters shadow 01:51:12 12° 204° (SSW) 1,518 2.9 -19.2°
